Year,Month,Day,Hour,Minute,Value (Times are PST for temperature in C)
2008,04,26,00,00,6.90
2008,04,26,00,01,6.90
2008,04,26,00,02,6.90
2008,04,26,00,03,6.80
2008,04,26,00,04,6.80
2008,04,26,00,05,6.70
2008,04,26,00,06,6.70
2008,04,26,00,07,6.60
2008,04,26,00,08,6.50
2008,04,26,00,09,6.30
2008,04,26,00,10,6.20
2008,04,26,00,11,6.10
2008,04,26,00,12,6.00
2008,04,26,00,13,5.90
2008,04,26,00,14,5.80
2008,04,26,00,15,5.70
2008,04,26,00,16,5.60
2008,04,26,00,17,5.50
2008,04,26,00,18,5.40
2008,04,26,00,19,5.40
2008,04,26,00,20,5.30
2008,04,26,00,21,5.30
2008,04,26,00,22,5.20
2008,04,26,00,23,5.20
2008,04,26,00,24,5.20
2008,04,26,00,25,5.20
2008,04,26,00,26,5.30
2008,04,26,00,27,5.30
2008,04,26,00,28,5.30
2008,04,26,00,29,5.20
2008,04,26,00,30,5.20
2008,04,26,00,31,5.10
2008,04,26,00,32,5.00
2008,04,26,00,33,5.00
2008,04,26,00,34,4.90
2008,04,26,00,35,4.80
2008,04,26,00,36,4.80
2008,04,26,00,37,4.70
2008,04,26,00,38,4.70
2008,04,26,00,39,4.60
2008,04,26,00,40,4.60
2008,04,26,00,41,4.50
2008,04,26,00,42,4.50
2008,04,26,00,43,4.40
2008,04,26,00,44,4.40
2008,04,26,00,45,4.40
2008,04,26,00,46,4.30
2008,04,26,00,47,4.30
2008,04,26,00,48,4.30
2008,04,26,00,49,4.30
2008,04,26,00,50,4.30
2008,04,26,00,51,4.20
2008,04,26,00,52,4.20
2008,04,26,00,53,4.20
2008,04,26,00,54,4.10
2008,04,26,00,55,4.10
2008,04,26,00,56,4.10
2008,04,26,00,57,4.00
2008,04,26,00,58,4.00
2008,04,26,00,59,3.90
2008,04,26,01,00,3.90
2008,04,26,01,01,3.80
2008,04,26,01,02,3.80
2008,04,26,01,03,3.80
2008,04,26,01,04,3.80
2008,04,26,01,05,3.80
2008,04,26,01,06,3.80
2008,04,26,01,07,3.80
2008,04,26,01,08,3.80
2008,04,26,01,09,3.70
2008,04,26,01,10,3.70
2008,04,26,01,11,3.70
2008,04,26,01,12,3.70
2008,04,26,01,13,3.70
2008,04,26,01,14,3.60
2008,04,26,01,15,3.60
2008,04,26,01,16,3.60
2008,04,26,01,17,3.50
2008,04,26,01,18,3.50
2008,04,26,01,19,3.50
2008,04,26,01,20,3.40
2008,04,26,01,21,3.40
2008,04,26,01,22,3.40
2008,04,26,01,23,3.30
2008,04,26,01,24,3.30
2008,04,26,01,25,3.30
2008,04,26,01,26,3.30
2008,04,26,01,27,3.30
2008,04,26,01,28,3.30
2008,04,26,01,29,3.20
2008,04,26,01,30,3.20
2008,04,26,01,31,3.10
2008,04,26,01,32,3.10
2008,04,26,01,33,3.00
2008,04,26,01,34,2.90
2008,04,26,01,35,2.90
2008,04,26,01,36,2.90
2008,04,26,01,37,2.90
2008,04,26,01,38,2.90
2008,04,26,01,39,2.80
2008,04,26,01,40,2.80
2008,04,26,01,41,2.70
2008,04,26,01,42,2.70
2008,04,26,01,43,2.70
2008,04,26,01,44,2.70
2008,04,26,01,45,2.70
2008,04,26,01,46,2.80
2008,04,26,01,47,2.90
2008,04,26,01,48,2.90
2008,04,26,01,49,2.90
2008,04,26,01,50,3.00
2008,04,26,01,51,3.00
2008,04,26,01,52,3.10
2008,04,26,01,53,3.20
2008,04,26,01,54,3.30
2008,04,26,01,55,3.30
2008,04,26,01,56,3.40
2008,04,26,01,57,3.50
2008,04,26,01,58,3.50
2008,04,26,01,59,3.60
2008,04,26,02,00,3.70
2008,04,26,02,01,3.70
2008,04,26,02,02,3.80
2008,04,26,02,03,3.90
2008,04,26,02,04,4.00
2008,04,26,02,05,4.10
2008,04,26,02,06,4.10
2008,04,26,02,07,4.10
2008,04,26,02,08,4.10
2008,04,26,02,09,4.20
2008,04,26,02,10,4.10
2008,04,26,02,11,4.10
2008,04,26,02,12,4.10
2008,04,26,02,13,4.10
2008,04,26,02,14,4.10
2008,04,26,02,15,4.10
2008,04,26,02,16,4.10
2008,04,26,02,17,4.10
2008,04,26,02,18,4.20
2008,04,26,02,19,4.20
2008,04,26,02,20,4.20
2008,04,26,02,21,4.30
2008,04,26,02,22,4.30
2008,04,26,02,23,4.30
2008,04,26,02,24,4.30
2008,04,26,02,25,4.30
2008,04,26,02,26,4.30
2008,04,26,02,27,4.30
2008,04,26,02,28,4.30
2008,04,26,02,29,4.30
2008,04,26,02,30,4.30
2008,04,26,02,31,4.30
2008,04,26,02,32,4.20
2008,04,26,02,33,4.10
2008,04,26,02,34,4.10
2008,04,26,02,35,4.00
2008,04,26,02,36,3.90
2008,04,26,02,37,3.80
2008,04,26,02,38,3.80
2008,04,26,02,39,3.70
2008,04,26,02,40,3.70
2008,04,26,02,41,3.60
2008,04,26,02,42,3.60
2008,04,26,02,43,3.50
2008,04,26,02,44,3.50
2008,04,26,02,45,3.40
2008,04,26,02,46,3.40
2008,04,26,02,47,3.30
2008,04,26,02,48,3.30
2008,04,26,02,49,3.20
2008,04,26,02,50,3.10
2008,04,26,02,51,3.10
2008,04,26,02,52,3.00
2008,04,26,02,53,3.00
2008,04,26,02,54,2.90
2008,04,26,02,55,2.90
2008,04,26,02,56,2.80
2008,04,26,02,57,2.80
2008,04,26,02,58,2.70
2008,04,26,02,59,2.70
2008,04,26,03,00,2.70
2008,04,26,03,01,2.60
2008,04,26,03,02,2.60
2008,04,26,03,03,2.50
2008,04,26,03,04,2.50
2008,04,26,03,05,2.40
2008,04,26,03,06,2.40
2008,04,26,03,07,2.30
2008,04,26,03,08,2.30
2008,04,26,03,09,2.30
2008,04,26,03,10,2.20
2008,04,26,03,11,2.20
2008,04,26,03,12,2.20
2008,04,26,03,13,2.10
2008,04,26,03,14,2.10
2008,04,26,03,15,2.10
2008,04,26,03,16,2.00
2008,04,26,03,17,2.00
2008,04,26,03,18,2.00
2008,04,26,03,19,1.90
2008,04,26,03,20,1.90
2008,04,26,03,21,1.90
2008,04,26,03,22,1.90
2008,04,26,03,23,1.80
2008,04,26,03,24,1.80
2008,04,26,03,25,1.80
2008,04,26,03,26,1.80
2008,04,26,03,27,1.80
2008,04,26,03,28,1.70
2008,04,26,03,29,1.70
2008,04,26,03,30,1.70
2008,04,26,03,31,1.70
2008,04,26,03,32,1.70
2008,04,26,03,33,1.60
2008,04,26,03,34,1.60
2008,04,26,03,35,1.60
2008,04,26,03,36,1.60
2008,04,26,03,37,1.60
2008,04,26,03,38,1.50
2008,04,26,03,39,1.50
2008,04,26,03,40,1.50
2008,04,26,03,41,1.40
2008,04,26,03,42,1.40
2008,04,26,03,43,1.40
2008,04,26,03,44,1.30
2008,04,26,03,45,1.30
2008,04,26,03,46,1.30
2008,04,26,03,47,1.30
2008,04,26,03,48,1.30
2008,04,26,03,49,1.30
2008,04,26,03,50,1.30
2008,04,26,03,51,1.30
2008,04,26,03,52,1.30
2008,04,26,03,53,1.30
2008,04,26,03,54,1.30
2008,04,26,03,55,1.30
2008,04,26,03,56,1.30
2008,04,26,03,57,1.30
2008,04,26,03,58,1.30
2008,04,26,03,59,1.30
2008,04,26,04,00,1.30
2008,04,26,04,01,1.30
2008,04,26,04,02,1.30
2008,04,26,04,03,1.30
2008,04,26,04,04,1.30
2008,04,26,04,05,1.30
2008,04,26,04,06,1.30
2008,04,26,04,07,1.30
2008,04,26,04,08,1.30
2008,04,26,04,09,1.30
2008,04,26,04,10,1.30
2008,04,26,04,11,1.30
2008,04,26,04,12,1.30
2008,04,26,04,13,1.30
2008,04,26,04,14,1.30
2008,04,26,04,15,1.30
2008,04,26,04,16,1.30
2008,04,26,04,17,1.30
2008,04,26,04,18,1.30
2008,04,26,04,19,1.30
2008,04,26,04,20,1.30
2008,04,26,04,21,1.30
2008,04,26,04,22,1.30
2008,04,26,04,23,1.30
2008,04,26,04,24,1.30
2008,04,26,04,25,1.30
2008,04,26,04,26,1.30
2008,04,26,04,27,1.30
2008,04,26,04,28,1.30
2008,04,26,04,29,1.30
2008,04,26,04,30,1.30
2008,04,26,04,31,1.30
2008,04,26,04,32,1.30
2008,04,26,04,33,1.30
2008,04,26,04,34,1.30
2008,04,26,04,35,1.30
2008,04,26,04,36,1.30
2008,04,26,04,37,1.30
2008,04,26,04,38,1.30
2008,04,26,04,39,1.30
2008,04,26,04,40,1.30
2008,04,26,04,41,1.30
2008,04,26,04,42,1.30
2008,04,26,04,43,1.30
2008,04,26,04,44,1.30
2008,04,26,04,45,1.30
2008,04,26,04,46,1.30
2008,04,26,04,47,1.30
2008,04,26,04,48,1.30
2008,04,26,04,49,1.30
2008,04,26,04,50,1.30
2008,04,26,04,51,1.20
2008,04,26,04,52,1.20
2008,04,26,04,53,1.20
2008,04,26,04,54,1.10
2008,04,26,04,55,1.10
2008,04,26,04,56,1.10
2008,04,26,04,57,1.10
2008,04,26,04,58,1.10
2008,04,26,04,59,1.10
2008,04,26,05,00,1.10
2008,04,26,05,01,1.10
2008,04,26,05,02,1.00
2008,04,26,05,03,1.00
2008,04,26,05,04,1.00
2008,04,26,05,05,1.00
2008,04,26,05,06,1.00
2008,04,26,05,07,0.90
2008,04,26,05,08,0.90
2008,04,26,05,09,0.90
2008,04,26,05,10,0.90
2008,04,26,05,11,0.80
2008,04,26,05,12,0.80
2008,04,26,05,13,0.80
2008,04,26,05,14,0.80
2008,04,26,05,15,0.80
2008,04,26,05,16,0.80
2008,04,26,05,17,0.80
2008,04,26,05,18,0.80
2008,04,26,05,19,0.80
2008,04,26,05,20,0.80
2008,04,26,05,21,0.80
2008,04,26,05,22,0.70
2008,04,26,05,23,0.70
2008,04,26,05,24,0.70
2008,04,26,05,25,0.70
2008,04,26,05,26,0.70
2008,04,26,05,27,0.70
2008,04,26,05,28,0.70
2008,04,26,05,29,0.70
2008,04,26,05,30,0.70
2008,04,26,05,31,0.60
2008,04,26,05,32,0.60
2008,04,26,05,33,0.60
2008,04,26,05,34,0.60
2008,04,26,05,35,0.50
2008,04,26,05,36,0.50
2008,04,26,05,37,0.50
2008,04,26,05,38,0.50
2008,04,26,05,39,0.50
2008,04,26,05,40,0.40
2008,04,26,05,41,0.40
2008,04,26,05,42,0.40
2008,04,26,05,43,0.40
2008,04,26,05,44,0.40
2008,04,26,05,45,0.40
2008,04,26,05,46,0.40
2008,04,26,05,47,0.40
2008,04,26,05,48,0.40
2008,04,26,05,49,0.40
2008,04,26,05,50,0.30
2008,04,26,05,51,0.30
2008,04,26,05,52,0.30
2008,04,26,05,53,0.30
2008,04,26,05,54,0.30
2008,04,26,05,55,0.30
2008,04,26,05,56,0.30
2008,04,26,05,57,0.30
2008,04,26,05,58,0.30
2008,04,26,05,59,0.30
2008,04,26,06,00,0.30
2008,04,26,06,01,0.30
2008,04,26,06,02,0.40
2008,04,26,06,03,0.40
2008,04,26,06,04,0.40
2008,04,26,06,05,0.40
2008,04,26,06,06,0.40
2008,04,26,06,07,0.40
2008,04,26,06,08,0.40
2008,04,26,06,09,0.40
2008,04,26,06,10,0.50
2008,04,26,06,11,0.50
2008,04,26,06,12,0.60
2008,04,26,06,13,0.60
2008,04,26,06,14,0.60
2008,04,26,06,15,0.60
2008,04,26,06,16,0.60
2008,04,26,06,17,0.60
2008,04,26,06,18,0.60
2008,04,26,06,19,0.60
2008,04,26,06,20,0.60
2008,04,26,06,21,0.60
2008,04,26,06,22,0.70
2008,04,26,06,23,0.70
2008,04,26,06,24,0.70
2008,04,26,06,25,0.70
2008,04,26,06,26,0.70
2008,04,26,06,27,0.70
2008,04,26,06,28,0.70
2008,04,26,06,29,0.80
2008,04,26,06,30,0.80
2008,04,26,06,31,0.80
2008,04,26,06,32,0.80
2008,04,26,06,33,0.80
2008,04,26,06,34,0.80
2008,04,26,06,35,0.80
2008,04,26,06,36,0.80
2008,04,26,06,37,0.80
2008,04,26,06,38,0.80
2008,04,26,06,39,0.90
2008,04,26,06,40,0.90
2008,04,26,06,41,0.90
2008,04,26,06,42,0.90
2008,04,26,06,43,0.90
2008,04,26,06,44,0.90
2008,04,26,06,45,0.90
2008,04,26,06,46,0.90
2008,04,26,06,47,1.00
2008,04,26,06,48,1.00
2008,04,26,06,49,1.00
2008,04,26,06,50,1.10
2008,04,26,06,51,1.10
2008,04,26,06,52,1.10
2008,04,26,06,53,1.10
2008,04,26,06,54,1.20
2008,04,26,06,55,1.20
2008,04,26,06,56,1.20
2008,04,26,06,57,1.30
2008,04,26,06,58,1.30
2008,04,26,06,59,1.30
2008,04,26,07,00,1.30
2008,04,26,07,01,1.30
2008,04,26,07,02,1.30
2008,04,26,07,03,1.30
2008,04,26,07,04,1.30
2008,04,26,07,05,1.30
2008,04,26,07,06,1.30
2008,04,26,07,07,1.30
2008,04,26,07,08,1.40
2008,04,26,07,09,1.40
2008,04,26,07,10,1.40
2008,04,26,07,11,1.50
2008,04,26,07,12,1.50
2008,04,26,07,13,1.50
2008,04,26,07,14,1.60
2008,04,26,07,15,1.60
2008,04,26,07,16,1.70
2008,04,26,07,17,1.70
2008,04,26,07,18,1.70
2008,04,26,07,19,1.80
2008,04,26,07,20,1.80
2008,04,26,07,21,1.80
2008,04,26,07,22,1.90
2008,04,26,07,23,2.00
2008,04,26,07,24,2.10
2008,04,26,07,25,2.10
2008,04,26,07,26,2.30
2008,04,26,07,27,2.40
2008,04,26,07,28,2.50
2008,04,26,07,29,2.70
2008,04,26,07,30,2.80
2008,04,26,07,31,2.90
2008,04,26,07,32,3.00
2008,04,26,07,33,3.20
2008,04,26,07,34,3.30
2008,04,26,07,35,3.40
2008,04,26,07,36,3.60
2008,04,26,07,37,3.70
2008,04,26,07,38,3.80
2008,04,26,07,39,3.90
2008,04,26,07,40,4.00
2008,04,26,07,41,4.20
2008,04,26,07,42,4.30
2008,04,26,07,43,4.40
2008,04,26,07,44,4.50
2008,04,26,07,45,4.70
2008,04,26,07,46,4.80
2008,04,26,07,47,5.00
2008,04,26,07,48,5.10
2008,04,26,07,49,5.30
2008,04,26,07,50,5.40
2008,04,26,07,51,5.60
2008,04,26,07,52,5.70
2008,04,26,07,53,5.80
2008,04,26,07,54,5.90
2008,04,26,07,55,6.00
2008,04,26,07,56,6.20
2008,04,26,07,57,6.30
2008,04,26,07,58,6.40
2008,04,26,07,59,6.50
2008,04,26,08,00,6.60
2008,04,26,08,01,6.70
2008,04,26,08,02,6.80
2008,04,26,08,03,7.00
2008,04,26,08,04,7.10
2008,04,26,08,05,7.20
2008,04,26,08,06,7.20
2008,04,26,08,07,7.30
2008,04,26,08,08,7.40
2008,04,26,08,09,7.50
2008,04,26,08,10,7.60
2008,04,26,08,11,7.60
2008,04,26,08,12,7.70
2008,04,26,08,13,7.70
2008,04,26,08,14,7.80
2008,04,26,08,15,7.80
2008,04,26,08,16,7.90
2008,04,26,08,17,7.90
2008,04,26,08,18,7.90
2008,04,26,08,19,8.00
2008,04,26,08,20,8.00
2008,04,26,08,21,8.00
2008,04,26,08,22,8.10
2008,04,26,08,23,8.10
2008,04,26,08,24,8.10
2008,04,26,08,25,8.20
2008,04,26,08,26,8.20
2008,04,26,08,27,8.20
2008,04,26,08,28,8.20
2008,04,26,08,29,8.20
2008,04,26,08,30,8.30
2008,04,26,08,31,8.30
2008,04,26,08,32,8.30
2008,04,26,08,33,8.30
2008,04,26,08,34,8.30
2008,04,26,08,35,8.30
2008,04,26,08,36,8.40
2008,04,26,08,37,8.40
2008,04,26,08,38,8.40
2008,04,26,08,39,8.40
2008,04,26,08,40,8.40
2008,04,26,08,41,8.40
2008,04,26,08,42,8.40
2008,04,26,08,43,8.40
2008,04,26,08,44,8.50
2008,04,26,08,45,8.60
2008,04,26,08,46,8.60
2008,04,26,08,47,8.60
2008,04,26,08,48,8.60
2008,04,26,08,49,8.60
2008,04,26,08,50,8.70
2008,04,26,08,51,8.70
2008,04,26,08,52,8.80
2008,04,26,08,53,8.90
2008,04,26,08,54,8.90
2008,04,26,08,55,9.00
2008,04,26,08,56,9.10
2008,04,26,08,57,9.20
2008,04,26,08,58,9.20
2008,04,26,08,59,9.30
2008,04,26,09,00,9.30
2008,04,26,09,01,9.40
2008,04,26,09,02,9.40
2008,04,26,09,03,9.40
2008,04,26,09,04,9.50
2008,04,26,09,05,9.50
2008,04,26,09,06,9.50
2008,04,26,09,07,9.50
2008,04,26,09,08,9.50
2008,04,26,09,09,9.50
2008,04,26,09,10,9.50
2008,04,26,09,11,9.50
2008,04,26,09,12,9.40
2008,04,26,09,13,9.40
2008,04,26,09,14,9.40
2008,04,26,09,15,9.40
2008,04,26,09,16,9.50
2008,04,26,09,17,9.60
2008,04,26,09,18,9.60
2008,04,26,09,19,9.60
2008,04,26,09,20,9.60
2008,04,26,09,21,9.70
2008,04,26,09,22,9.70
2008,04,26,09,23,9.70
2008,04,26,09,24,9.70
2008,04,26,09,25,9.70
2008,04,26,09,26,9.70
2008,04,26,09,27,9.60
2008,04,26,09,28,9.60
2008,04,26,09,29,9.70
2008,04,26,09,30,9.70
2008,04,26,09,31,9.70
2008,04,26,09,32,9.70
2008,04,26,09,33,9.70
2008,04,26,09,34,9.70
2008,04,26,09,35,9.70
2008,04,26,09,36,9.80
2008,04,26,09,37,9.80
2008,04,26,09,38,9.80
2008,04,26,09,39,9.90
2008,04,26,09,40,10.00
2008,04,26,09,41,10.00
2008,04,26,09,42,10.10
2008,04,26,09,43,10.20
2008,04,26,09,44,10.20
2008,04,26,09,45,10.30
2008,04,26,09,46,10.30
2008,04,26,09,47,10.30
2008,04,26,09,48,10.40
2008,04,26,09,49,10.30
2008,04,26,09,50,10.30
2008,04,26,09,51,10.30
2008,04,26,09,52,10.30
2008,04,26,09,53,10.20
2008,04,26,09,54,10.30
2008,04,26,09,55,10.30
2008,04,26,09,56,10.30
2008,04,26,09,57,10.30
2008,04,26,09,58,10.40
2008,04,26,09,59,10.50
2008,04,26,10,00,10.40
2008,04,26,10,01,10.30
2008,04,26,10,02,10.30
2008,04,26,10,03,10.40
2008,04,26,10,04,10.50
2008,04,26,10,05,10.60
2008,04,26,10,06,10.60
2008,04,26,10,07,10.60
2008,04,26,10,08,10.50
2008,04,26,10,09,10.50
2008,04,26,10,10,10.50
2008,04,26,10,11,10.40
2008,04,26,10,12,10.40
2008,04,26,10,13,10.40
2008,04,26,10,14,10.40
2008,04,26,10,15,10.50
2008,04,26,10,16,10.40
2008,04,26,10,17,10.40
2008,04,26,10,18,10.40
2008,04,26,10,19,10.40
2008,04,26,10,20,10.60
2008,04,26,10,21,10.70
2008,04,26,10,22,10.70
2008,04,26,10,23,10.70
2008,04,26,10,24,10.70
2008,04,26,10,25,10.60
2008,04,26,10,26,10.50
2008,04,26,10,27,10.40
2008,04,26,10,28,10.40
2008,04,26,10,29,10.50
2008,04,26,10,30,10.50
2008,04,26,10,31,10.50
2008,04,26,10,32,10.40
2008,04,26,10,33,10.50
2008,04,26,10,34,10.40
2008,04,26,10,35,10.40
2008,04,26,10,36,10.40
2008,04,26,10,37,10.30
2008,04,26,10,38,10.30
2008,04,26,10,39,10.30
2008,04,26,10,40,10.30
2008,04,26,10,41,10.30
2008,04,26,10,42,10.20
2008,04,26,10,43,10.20
2008,04,26,10,44,10.30
2008,04,26,10,45,10.30
2008,04,26,10,46,10.30
2008,04,26,10,47,10.30
2008,04,26,10,48,10.30
2008,04,26,10,49,10.30
2008,04,26,10,50,10.30
2008,04,26,10,51,10.30
2008,04,26,10,52,10.20
2008,04,26,10,53,10.20
2008,04,26,10,54,10.10
2008,04,26,10,55,10.20
2008,04,26,10,56,10.20
2008,04,26,10,57,10.20
2008,04,26,10,58,10.30
2008,04,26,10,59,10.40
2008,04,26,11,00,10.60
2008,04,26,11,01,10.50
2008,04,26,11,02,10.40
2008,04,26,11,03,10.40
2008,04,26,11,04,10.30
2008,04,26,11,05,10.40
2008,04,26,11,06,10.50
2008,04,26,11,07,10.50
2008,04,26,11,08,10.50
2008,04,26,11,09,10.40
2008,04,26,11,10,10.40
2008,04,26,11,11,10.40
2008,04,26,11,12,10.30
2008,04,26,11,13,10.30
2008,04,26,11,14,10.30
2008,04,26,11,15,10.30
2008,04,26,11,16,10.40
2008,04,26,11,17,10.40
2008,04,26,11,18,10.50
2008,04,26,11,19,10.60
2008,04,26,11,20,10.60
2008,04,26,11,21,10.60
2008,04,26,11,22,10.60
2008,04,26,11,23,10.70
2008,04,26,11,24,10.70
2008,04,26,11,25,10.70
2008,04,26,11,26,10.70
2008,04,26,11,27,10.70
2008,04,26,11,28,10.80
2008,04,26,11,29,10.80
2008,04,26,11,30,10.80
2008,04,26,11,31,10.90
2008,04,26,11,32,10.90
2008,04,26,11,33,10.90
2008,04,26,11,34,10.90
2008,04,26,11,35,10.90
2008,04,26,11,36,10.90
2008,04,26,11,37,10.80
2008,04,26,11,38,10.70
2008,04,26,11,39,10.70
2008,04,26,11,40,10.70
2008,04,26,11,41,10.80
2008,04,26,11,42,10.90
2008,04,26,11,43,10.90
2008,04,26,11,44,10.90
2008,04,26,11,45,10.90
2008,04,26,11,46,11.00
2008,04,26,11,47,11.00
2008,04,26,11,48,11.00
2008,04,26,11,49,11.10
2008,04,26,11,50,11.10
2008,04,26,11,51,11.00
2008,04,26,11,52,11.10
2008,04,26,11,53,11.20
2008,04,26,11,54,11.30
2008,04,26,11,55,11.40
2008,04,26,11,56,11.60
2008,04,26,11,57,11.60
2008,04,26,11,58,11.60
2008,04,26,11,59,11.50
2008,04,26,12,00,11.40
2008,04,26,12,01,11.40
2008,04,26,12,02,11.40
2008,04,26,12,03,11.40
2008,04,26,12,04,11.40
2008,04,26,12,05,11.30
2008,04,26,12,06,11.40
2008,04,26,12,07,11.60
2008,04,26,12,08,11.70
2008,04,26,12,09,11.60
2008,04,26,12,10,11.60
2008,04,26,12,11,11.50
2008,04,26,12,12,11.60
2008,04,26,12,13,11.60
2008,04,26,12,14,11.70
2008,04,26,12,15,11.80
2008,04,26,12,16,11.80
2008,04,26,12,17,11.90
2008,04,26,12,18,12.00
2008,04,26,12,19,12.10
2008,04,26,12,20,12.10
2008,04,26,12,21,12.10
2008,04,26,12,22,12.10
2008,04,26,12,23,12.10
2008,04,26,12,24,12.10
2008,04,26,12,25,12.10
2008,04,26,12,26,12.10
2008,04,26,12,27,12.10
2008,04,26,12,28,12.10
2008,04,26,12,29,12.10
2008,04,26,12,30,12.00
2008,04,26,12,31,12.00
2008,04,26,12,32,12.00
2008,04,26,12,33,12.00
2008,04,26,12,34,12.00
2008,04,26,12,35,12.00
2008,04,26,12,36,12.10
2008,04,26,12,37,12.20
2008,04,26,12,38,12.20
2008,04,26,12,39,12.20
2008,04,26,12,40,12.30
2008,04,26,12,41,12.40
2008,04,26,12,42,12.30
2008,04,26,12,43,12.30
2008,04,26,12,44,12.30
2008,04,26,12,45,12.30
2008,04,26,12,46,12.30
2008,04,26,12,47,12.30
2008,04,26,12,48,12.30
2008,04,26,12,49,12.30
2008,04,26,12,50,12.30
2008,04,26,12,51,12.40
2008,04,26,12,52,12.50
2008,04,26,12,53,12.50
2008,04,26,12,54,12.40
2008,04,26,12,55,12.40
2008,04,26,12,56,12.50
2008,04,26,12,57,12.60
2008,04,26,12,58,12.70
2008,04,26,12,59,12.70
2008,04,26,13,00,12.70
2008,04,26,13,01,12.80
2008,04,26,13,02,12.80
2008,04,26,13,03,12.80
2008,04,26,13,04,12.70
2008,04,26,13,05,12.60
2008,04,26,13,06,12.60
2008,04,26,13,07,12.60
2008,04,26,13,08,12.60
2008,04,26,13,09,12.70
2008,04,26,13,10,12.80
2008,04,26,13,11,12.90
2008,04,26,13,12,12.90
2008,04,26,13,13,12.90
2008,04,26,13,14,12.90
2008,04,26,13,15,12.90
2008,04,26,13,16,13.00
2008,04,26,13,17,13.10
2008,04,26,13,18,13.00
2008,04,26,13,19,13.00
2008,04,26,13,20,13.00
2008,04,26,13,21,13.10
2008,04,26,13,22,13.10
2008,04,26,13,23,13.10
2008,04,26,13,24,13.20
2008,04,26,13,25,13.30
2008,04,26,13,26,13.30
2008,04,26,13,27,13.30
2008,04,26,13,28,13.30
2008,04,26,13,29,13.30
2008,04,26,13,30,13.30
2008,04,26,13,31,13.40
2008,04,26,13,32,13.50
2008,04,26,13,33,13.60
2008,04,26,13,34,13.60
2008,04,26,13,35,13.70
2008,04,26,13,36,13.70
2008,04,26,13,37,13.80
2008,04,26,13,38,13.70
2008,04,26,13,39,13.70
2008,04,26,13,40,13.60
2008,04,26,13,41,13.50
2008,04,26,13,42,13.50
2008,04,26,13,43,13.50
2008,04,26,13,44,13.50
2008,04,26,13,45,13.50
2008,04,26,13,46,13.60
2008,04,26,13,47,13.60
2008,04,26,13,48,13.60
2008,04,26,13,49,13.50
2008,04,26,13,50,13.50
2008,04,26,13,51,13.50
2008,04,26,13,52,13.60
2008,04,26,13,53,13.60
2008,04,26,13,54,13.60
2008,04,26,13,55,13.80
2008,04,26,13,56,13.80
2008,04,26,13,57,13.60
2008,04,26,13,58,13.50
2008,04,26,13,59,13.40
2008,04,26,14,00,13.30
2008,04,26,14,01,13.20
2008,04,26,14,02,13.10
2008,04,26,14,03,13.10
2008,04,26,14,04,13.10
2008,04,26,14,05,13.10
2008,04,26,14,06,13.10
2008,04,26,14,07,13.10
2008,04,26,14,08,13.10
2008,04,26,14,09,13.10
2008,04,26,14,10,13.20
2008,04,26,14,11,13.30
2008,04,26,14,12,13.30
2008,04,26,14,13,13.30
2008,04,26,14,14,13.30
2008,04,26,14,15,13.50
2008,04,26,14,16,13.60
2008,04,26,14,17,13.70
2008,04,26,14,18,13.70
2008,04,26,14,19,13.80
2008,04,26,14,20,13.80
2008,04,26,14,21,13.70
2008,04,26,14,22,13.70
2008,04,26,14,23,13.60
2008,04,26,14,24,13.60
2008,04,26,14,25,13.60
2008,04,26,14,26,13.50
2008,04,26,14,27,13.40
2008,04,26,14,28,13.40
2008,04,26,14,29,13.30
2008,04,26,14,30,13.30
2008,04,26,14,31,13.40
2008,04,26,14,32,13.40
2008,04,26,14,33,13.40
2008,04,26,14,34,13.50
2008,04,26,14,35,13.60
2008,04,26,14,36,13.70
2008,04,26,14,37,13.70
2008,04,26,14,38,13.60
2008,04,26,14,39,13.60
2008,04,26,14,40,13.50
2008,04,26,14,41,13.50
2008,04,26,14,42,13.50
2008,04,26,14,43,13.50
2008,04,26,14,44,13.50
2008,04,26,14,45,13.50
2008,04,26,14,46,13.40
2008,04,26,14,47,13.30
2008,04,26,14,48,13.20
2008,04,26,14,49,13.20
2008,04,26,14,50,13.30
2008,04,26,14,51,13.40
2008,04,26,14,52,13.40
2008,04,26,14,53,13.50
2008,04,26,14,54,13.50
2008,04,26,14,55,13.50
2008,04,26,14,56,13.40
2008,04,26,14,57,13.30
2008,04,26,14,58,13.30
2008,04,26,14,59,13.30
2008,04,26,15,00,13.40
2008,04,26,15,01,13.40
2008,04,26,15,02,13.40
2008,04,26,15,03,13.40
2008,04,26,15,04,13.30
2008,04,26,15,05,13.20
2008,04,26,15,06,13.30
2008,04,26,15,07,13.30
2008,04,26,15,08,13.30
2008,04,26,15,09,13.30
2008,04,26,15,10,13.40
2008,04,26,15,11,13.40
2008,04,26,15,12,13.40
2008,04,26,15,13,13.40
2008,04,26,15,14,13.40
2008,04,26,15,15,13.30
2008,04,26,15,16,13.20
2008,04,26,15,17,13.20
2008,04,26,15,18,13.10
2008,04,26,15,19,13.10
2008,04,26,15,20,13.10
2008,04,26,15,21,13.10
2008,04,26,15,22,13.10
2008,04,26,15,23,13.20
2008,04,26,15,24,13.10
2008,04,26,15,25,13.10
2008,04,26,15,26,13.10
2008,04,26,15,27,13.10
2008,04,26,15,28,13.10
2008,04,26,15,29,13.00
2008,04,26,15,30,13.00
2008,04,26,15,31,13.00
2008,04,26,15,32,13.10
2008,04,26,15,33,13.20
2008,04,26,15,34,13.20
2008,04,26,15,35,13.20
2008,04,26,15,36,13.10
2008,04,26,15,37,13.20
2008,04,26,15,38,13.20
2008,04,26,15,39,13.30
2008,04,26,15,40,13.30
2008,04,26,15,41,13.40
2008,04,26,15,42,13.40
2008,04,26,15,43,13.40
2008,04,26,15,44,13.40
2008,04,26,15,45,13.40
2008,04,26,15,46,13.30
2008,04,26,15,47,13.40
2008,04,26,15,48,13.40
2008,04,26,15,49,13.40
2008,04,26,15,50,13.40
2008,04,26,15,51,13.40
2008,04,26,15,52,13.40
2008,04,26,15,53,13.40
2008,04,26,15,54,13.40
2008,04,26,15,55,13.40
2008,04,26,15,56,13.30
2008,04,26,15,57,13.30
2008,04,26,15,58,13.30
2008,04,26,15,59,13.40
2008,04,26,16,00,13.40
2008,04,26,16,01,13.40
2008,04,26,16,02,13.40
2008,04,26,16,03,13.40
2008,04,26,16,04,13.40
2008,04,26,16,05,13.50
2008,04,26,16,06,13.50
2008,04,26,16,07,13.50
2008,04,26,16,08,13.40
2008,04,26,16,09,13.40
2008,04,26,16,10,13.40
2008,04,26,16,11,13.40
2008,04,26,16,12,13.30
2008,04,26,16,13,13.20
2008,04,26,16,14,13.20
2008,04,26,16,15,13.20
2008,04,26,16,16,13.10
2008,04,26,16,17,13.20
2008,04,26,16,18,13.20
2008,04,26,16,19,13.20
2008,04,26,16,20,13.30
2008,04,26,16,21,13.30
2008,04,26,16,22,13.20
2008,04,26,16,23,13.20
2008,04,26,16,24,13.20
2008,04,26,16,25,13.20
2008,04,26,16,26,13.20
2008,04,26,16,27,13.20
2008,04,26,16,28,13.20
2008,04,26,16,29,13.20
2008,04,26,16,30,13.20
2008,04,26,16,31,13.30
2008,04,26,16,32,13.30
2008,04,26,16,33,13.30
2008,04,26,16,34,13.30
2008,04,26,16,35,13.30
2008,04,26,16,36,13.30
2008,04,26,16,37,13.20
2008,04,26,16,38,13.10
2008,04,26,16,39,13.10
2008,04,26,16,40,13.10
2008,04,26,16,41,13.10
2008,04,26,16,42,13.10
2008,04,26,16,43,13.10
2008,04,26,16,44,13.10
2008,04,26,16,45,13.00
2008,04,26,16,46,13.00
2008,04,26,16,47,13.00
2008,04,26,16,48,13.00
2008,04,26,16,49,12.90
2008,04,26,16,50,13.00
2008,04,26,16,51,13.00
2008,04,26,16,52,13.10
2008,04,26,16,53,13.10
2008,04,26,16,54,13.10
2008,04,26,16,55,13.10
2008,04,26,16,56,13.10
2008,04,26,16,57,13.10
2008,04,26,16,58,13.10
2008,04,26,16,59,13.10
2008,04,26,17,00,13.10
2008,04,26,17,01,13.10
2008,04,26,17,02,13.10
2008,04,26,17,03,13.10
2008,04,26,17,04,13.10
2008,04,26,17,05,13.20
2008,04,26,17,06,13.20
2008,04,26,17,07,13.20
2008,04,26,17,08,13.20
2008,04,26,17,09,13.20
2008,04,26,17,10,13.20
2008,04,26,17,11,13.20
2008,04,26,17,12,13.20
2008,04,26,17,13,13.20
2008,04,26,17,14,13.20
2008,04,26,17,15,13.30
2008,04,26,17,16,13.30
2008,04,26,17,17,13.30
2008,04,26,17,18,13.30
2008,04,26,17,19,13.30
2008,04,26,17,20,13.40
2008,04,26,17,21,13.40
2008,04,26,17,22,13.40
2008,04,26,17,23,13.50
2008,04,26,17,24,13.50
2008,04,26,17,25,13.50
2008,04,26,17,26,13.60
2008,04,26,17,27,13.60
2008,04,26,17,28,13.60
2008,04,26,17,29,13.70
2008,04,26,17,30,13.80
2008,04,26,17,31,13.80
2008,04,26,17,32,13.80
2008,04,26,17,33,13.90
2008,04,26,17,34,13.80
2008,04,26,17,35,13.80
2008,04,26,17,36,13.80
2008,04,26,17,37,13.80
2008,04,26,17,38,13.80
2008,04,26,17,39,13.80
2008,04,26,17,40,13.80
2008,04,26,17,41,13.80
2008,04,26,17,42,13.80
2008,04,26,17,43,13.70
2008,04,26,17,44,13.70